Wind_Speed
33 33 33 32 31 31 31 31 31 30 30 30 30 30 30 30 30 30 30 29 29 28 28 27 25 23 22 21 20 19 18 18 17 16 16 16 16 17 18 18 18 18 17 16 16 15 15 15 14 14 14 13 12 12 11 10 9 8 7 7 7 7 7 7 6 6 7 10 11 12 12 13 13 14 15 17 19 20 20 22 24 25 26 27 28
32 33 33 33 32 31 31 32 32 31 31 30 29 30 30 31 31 31 31 30 29 29 28 28 26 25 24 22 20 19 18 18 18 17 16 16 17 18 20 20 20 21 21 20 19 18 18 18 17 17 16 16 15 14 13 12 11 11 10 10 10 10 10 10 10 8 8 11 13 14 15 17 17 18 19 20 22 24 25 25 27 28 29 30 32
31 32 32 33 32 32 32 32 33 32 32 31 30 30 30 31 31 32 31 30 30 30 29 28 27 26 24 23 21 19 18 18 18 17 17 17 18 19 21 23 23 23 23 23 22 22 21 21 20 20 19 18 17 16 15 14 14 14 14 13 14 14 14 14 14 13 12 12 14 16 17 19 20 21 22 23 24 26 28 29 30 32 33 34 35
30 31 31 32 32 32 32 33 33 33 33 31 30 30 30 31 31 32 32 31 31 30 29 29 28 26 25 24 22 20 19 18 18 18 17 17 18 20 21 23 24 25 25 25 25 25 24 23 23 22 22 20 19 19 18 17 17 17 17 17 17 18 19 18 18 18 17 16 16 18 19 21 23 23 24 25 27 28 30 31 33 34 35 37 39
29 30 30 31 32 33 33 33 33 34 33 32 30 30 30 31 31 32 32 32 31 30 29 29 28 27 25 24 22 20 19 19 18 18 18 18 19 20 21 23 24 26 27 27 28 27 26 25 25 25 24 22 21 21 20 20 20 20 20 20 20 21 22 22 22 22 22 21 20 21 22 23 25 26 28 29 30 31 33 34 36 36 37 38 39
29 29 29 31 32 33 33 33 33 33 33 32 31 31 31 31 31 32 32 31 31 30 30 29 29 27 25 24 23 21 20 20 19 19 19 19 20 20 20 22 23 25 26 28 29 29 29 28 27 27 26 25 24 24 23 23 23 23 23 23 24 24 25 25 26 26 26 25 24 24 25 26 27 28 30 31 33 34 35 36 37 38 38 37 37
30 28 28 30 32 32 33 33 33 33 33 33 32 32 32 32 32 32 31 31 31 30 30 30 29 27 26 25 24 22 21 21 20 20 20 21 20 20 20 20 22 23 25 26 28 30 30 30 29 29 28 27 27 26 26 26 26 26 26 27 27 28 28 29 29 29 29 29 29 28 29 29 30 30 31 32 32 32 33 35 35 35 35 35 34
31 29 28 29 30 31 32 32 33 32 33 34 34 33 33 32 32 32 31 31 31 30 30 29 29 28 27 26 25 24 23 22 21 21 21 22 21 20 20 20 20 21 22 24 26 28 30 31 31 30 30 29 29 29 29 29 29 29 29 30 30 31 32 32 32 32 32 33 32 31 30 30 29 29 29 29 28 29 31 32 31 30 30 29 30
33 31 29 29 29 30 31 32 33 32 32 33 34 33 33 33 32 32 31 31 31 30 29 29 29 28 28 27 26 25 24 23 22 21 21 22 21 20 20 20 19 19 20 21 23 25 27 29 30 31 31 31 30 31 31 31 32 32 32 32 33 33 33 33 33 33 32 32 31 29 28 27 26 27 28 27 27 29 30 28 27 27 26 27 29
34 33 30 29 28 29 30 32 32 32 32 32 33 33 33 33 33 32 32 31 31 30 29 29 29 28 28 27 26 26 25 23 22 21 21 22 22 21 21 20 19 19 19 21 21 22 24 26 27 29 30 30 30 31 31 32 32 32 32 32 32 32 32 31 30 29 28 28 28 27 26 25 24 27 29 29 29 30 30 27 25 26 27 28 29
34 33 32 30 29 29 29 30 31 31 32 31 31 32 33 34 34 33 33 32 31 30 29 29 29 28 28 27 27 26 25 23 21 20 20 22 23 22 22 20 19 19 20 20 20 20 20 21 22 24 25 26 27 27 28 29 29 28 28 29 29 29 28 27 25 25 25 26 26 26 26 25 24 26 30 29 28 28 28 27 26 27 29 29 28
35 34 33 32 31 29 28 29 29 30 31 31 31 31 32 33 34 34 33 33 32 31 30 29 29 28 28 27 27 26 24 23 22 20 21 22 23 23 23 22 21 21 20 20 20 19 19 18 19 20 20 20 21 22 23 24 24 25 26 26 27 27 26 26 25 24 24 24 25 25 24 24 25 27 30 30 30 29 27 25 26 27 27 27 27
35 35 35 34 31 30 29 29 29 29 30 30 30 31 32 32 32 32 32 33 33 32 32 31 30 29 29 28 28 26 24 23 22 21 21 22 23 24 24 24 23 23 22 22 21 20 20 19 19 19 19 19 19 20 21 22 23 25 26 28 28 27 26 26 25 24 22 22 23 24 25 26 28 30 33 33 35 35 30 26 27 25 23 26 28
36 36 36 34 31 30 30 30 29 29 29 30 30 31 31 30 30 31 31 32 32 32 32 32 31 30 30 29 27 26 25 24 22 21 22 22 23 25 25 26 26 25 25 24 23 23 22 21 21 21 20 21 21 21 22 23 25 26 27 27 27 25 24 24 23 22 21 21 23 25 27 29 30 33 36 38 39 39 35 31 29 23 22 26 25
37 37 36 34 32 31 31 32 31 30 29 29 29 29 30 30 30 30 30 30 30 31 31 32 31 31 31 30 28 26 25 24 22 22 22 23 24 25 26 27 27 27 27 26 25 25 24 23 23 22 22 23 23 23 24 25 27 27 25 24 22 21 21 21 22 22 22 23 26 28 31 32 33 35 38 40 42 40 34 31 27 23 23 25 26
38 37 36 35 32 31 31 32 33 33 31 30 29 29 29 30 30 31 30 30 30 30 31 31 31 31 31 30 29 28 26 25 23 22 23 24 26 27 27 28 28 28 28 27 27 26 25 24 24 23 24 24 24 24 24 26 27 26 22 20 18 19 20 21 23 23 24 26 29 31 34 36 37 39 40 42 46 42 32 26 22 21 24 27 27
38 38 36 35 32 31 31 32 34 34 33 31 29 29 29 29 30 30 30 30 30 30 30 30 30 30 31 31 31 29 28 27 25 24 25 26 28 28 28 29 29 29 28 28 28 27 26 25 24 24 25 25 24 24 24 26 26 24 21 19 18 19 21 22 24 25 26 29 31 33 36 38 41 42 41 42 45 38 28 23 21 23 26 26 25
38 38 36 34 32 31 30 31 33 34 33 31 30 29 30 30 29 30 30 30 30 29 28 28 29 30 31 31 31 31 29 29 28 27 28 29 29 30 30 30 31 30 29 29 29 28 27 26 25 26 26 25 24 24 24 26 26 24 21 20 20 21 22 23 25 28 30 32 33 35 37 40 43 42 38 37 35 27 23 25 26 27 27 25 23
39 38 35 32 31 30 29 29 30 32 32 31 31 31 30 30 29 29 29 29 29 28 28 28 29 30 31 31 31 31 30 31 31 30 30 31 31 32 32 32 32 31 30 30 29 29 27 26 26 26 26 24 24 24 26 27 27 26 24 22 21 22 23 25 27 29 32 34 36 39 40 41 42 40 36 34 30 23 24 31 32 29 26 24 24
39 36 32 30 29 28 28 29 30 31 32 32 32 32 31 30 29 29 28 28 28 28 28 28 29 29 29 30 30 29 30 30 31 30 31 32 32 33 34 33 33 31 31 31 30 30 28 27 27 26 25 25 24 25 27 28 28 27 26 24 23 23 25 27 29 31 34 36 39 41 41 41 42 39 36 34 32 29 30 32 31 27 24 23 26
37 34 30 29 29 27 27 28 29 30 31 32 32 31 29 28 28 28 28 28 28 27 27 27 27 27 27 27 28 27 28 28 29 29 30 31 33 34 35 35 33 32 32 32 32 31 30 28 28 26 25 25 26 27 29 30 29 28 27 26 25 26 28 30 31 34 36 39 41 42 42 41 40 39 37 37 37 37 34 30 26 24 23 25 28
35 32 29 29 29 28 27 27 28 29 30 30 30 29 28 28 28 28 28 28 27 26 26 26 26 26 26 26 26 26 26 27 28 28 29 31 33 34 35 35 34 33 33 33 32 32 31 29 29 27 26 27 28 29 30 30 29 29 28 28 28 29 31 32 34 37 39 41 42 43 42 41 39 39 39 39 39 39 36 33 29 26 25 27 29
34 31 30 30 30 30 29 29 28 29 28 28 28 28 28 29 29 29 29 29 28 27 27 27 27 27 27 27 27 27 27 27 28 28 28 30 33 34 35 35 34 34 34 33 33 32 31 31 30 29 28 29 30 30 31 31 30 30 30 30 31 32 34 35 38 39 41 43 43 43 41 40 39 38 37 36 37 36 35 34 32 30 30 31 32
34 32 32 32 31 31 31 30 30 30 29 29 29 30 30 30 31 30 30 30 30 29 29 29 29 29 29 29 28 28 27 27 27 27 28 30 32 33 35 35 34 34 34 34 33 33 33 32 31 30 29 30 31 30 31 31 31 31 31 32 33 35 36 38 40 41 43 44 44 42 41 39 38 37 35 35 36 35 32 31 31 32 33 33 34
35 33 33 33 32 32 32 31 32 31 31 31 31 31 32 32 32 32 32 32 32 32 32 32 32 32 31 30 29 28 27 26 26 27 28 29 30 32 33 34 34 35 35 35 35 34 34 33 33 32 31 32 32 32 32 32 33 33 34 35 36 38 39 41 42 44 46 45 42 41 40 39 38 36 36 37 36 33 29 29 30 31 32 33 34
35 35 34 33 33 34 34 33 33 32 32 32 32 33 33 33 33 33 33 34 34 34 33 33 34 34 33 33 32 31 29 28 27 28 28 29 30 31 32 33 35 35 36 36 36 35 35 34 34 34 33 33 34 34 34 34 35 36 37 38 39 41 42 43 45 46 46 43 41 40 39 38 37 37 38 39 35 31 29 29 30 31 32 33 34
35 34 34 34 35 35 34 33 32 31 31 32 32 33 33 33 34 34 34 34 34 34 34 34 34 34 34 35 34 33 32 31 31 30 30 30 30 31 32 33 34 36 37 37 37 36 36 36 35 35 35 35 35 36 36 36 37 38 39 41 42 43 45 46 47 46 44 41 39 37 36 36 37 39 40 38 33 29 29 30 30 31 32 33 35
32 30 30 30 30 30 29 29 28 28 28 29 30 31 31 32 32 32 31 32 32 32 32 32 32 32 32 33 32 32 32 32 32 33 32 31 31 31 31 32 33 35 36 37 37 37 37 36 36 37 37 37 37 38 38 38 39 41 42 43 45 46 47 47 45 43 40 38 36 35 35 37 38 39 38 34 31 30 31 31 31 32 33 34 36
27 26 26 26 26 25 25 25 25 26 26 27 28 29 29 29 29 29 29 30 30 29 29 29 29 29 29 30 30 30 31 31 32 32 32 32 33 33 33 34 34 34 35 36 37 37 37 37 38 38 38 39 39 39 39 40 41 43 44 45 46 46 46 44 40 38 36 35 35 36 37 38 37 35 32 30 30 31 31 32 32 33 34 35 37
27 25 23 23 23 24 25 26 27 27 27 27 27 26 26 25 25 25 26 26 25 26 27 27 28 28 29 29 30 30 31 31 31 32 33 34 36 36 36 36 35 35 36 36 36 37 38 38 39 39 39 39 40 40 41 42 43 44 45 45 45 44 42 39 36 35 35 36 37 37 36 34 32 30 29 29 30 31 32 33 34 34 35 37 38
30 28 25 23 22 22 23 24 24 23 22 22 21 20 20 20 20 21 21 21 21 23 24 25 27 28 29 30 31 31 31 32 32 33 34 35 36 35 34 35 35 35 36 36 37 38 38 38 39 39 39 40 41 42 42 43 44 44 44 44 43 40 38 35 34 35 36 35 34 32 31 30 28 28 28 29 30 31 32 33 34 35 37 38 39
31 31 30 26 24 23 23 21 20 19 19 18 17 17 17 18 18 19 20 20 20 21 23 24 26 27 29 31 32 32 32 33 33 33 33 34 34 34 33 33 33 34 35 36 36 37 38 38 38 38 38 39 40 41 41 41 41 41 41 40 38 36 34 33 33 33 32 30 29 29 29 28 28 28 29 30 30 32 33 34 35 36 37 38 39
31 32 32 30 27 26 24 22 21 20 20 20 19 19 19 20 20 20 21 22 23 23 24 24 25 26 27 29 31 31 32 33 33 32 33 33 33 33 32 31 32 33 34 35 36 36 37 37 35 36 38 39 38 37 38 38 37 37 37 35 33 31 30 29 29 29 29 28 28 28 27 27 28 29 30 30 31 32 33 34 35 36 37 38 39
33 33 33 32 31 28 26 24 23 22 23 23 23 23 24 25 25 25 24 25 26 27 27 27 27 27 27 28 29 29 30 31 31 30 31 31 31 31 31 31 32 32 33 34 35 35 34 33 33 34 36 35 34 35 36 35 33 32 30 29 29 28 27 28 29 29 30 30 28 27 27 28 29 30 31 31 32 33 34 35 36 37 37 38 38
35 34 33 32 31 29 27 26 25 24 25 25 26 26 27 29 31 32 31 30 30 30 30 30 30 29 29 30 30 30 29 29 29 28 28 28 28 29 30 31 31 31 30 31 33 33 32 32 33 34 34 33 33 32 30 28 28 28 28 29 30 30 30 29 29 29 30 30 28 27 27 28 29 30 31 32 33 34 35 36 37 37 38 38 39
36 35 33 32 31 29 27 26 26 26 27 27 27 29 30 31 33 35 35 35 34 32 31 31 31 31 31 31 31 30 30 30 29 27 26 26 27 28 29 30 30 29 29 30 32 32 32 32 32 32 32 31 30 27 26 27 29 30 31 32 32 31 31 30 28 28 29 29 28 27 27 28 29 31 32 33 34 34 35 36 37 37 38 39 39
37 36 34 32 30 28 28 27 27 28 28 28 28 30 31 31 32 33 34 34 35 34 33 33 32 32 33 32 32 31 31 30 29 28 28 28 28 29 30 30 30 29 30 31 32 30 28 26 26 25 25 25 25 25 27 30 31 31 31 31 30 30 30 30 29 29 28 28 27 27 27 29 30 31 32 33 34 35 36 36 37 37 38 38 39
34 33 31 29 28 27 27 28 28 29 29 29 29 30 31 31 31 31 32 33 33 34 34 34 33 34 34 34 34 33 33 32 32 32 31 31 31 31 31 31 29 29 29 29 28 26 23 21 22 23 25 27 27 28 29 31 32 33 33 31 29 28 28 28 28 28 27 27 27 27 28 30 31 32 33 34 35 36 36 36 36 36 37 38 39
32 31 29 28 27 26 26 27 28 28 28 28 28 29 30 30 30 31 31 31 31 31 32 33 34 35 35 35 35 35 34 34 34 33 31 31 32 32 32 30 28 27 27 27 26 25 24 23 23 26 29 31 31 30 30 31 34 35 33 31 29 28 28 27 27 27 27 27 28 28 29 31 32 33 34 35 35 36 36 36 36 36 36 38 39
31 30 29 27 24 23 23 23 25 25 25 25 26 26 27 29 29 30 30 29 29 29 30 31 32 32 32 33 34 34 35 35 34 33 31 32 33 32 31 30 28 25 25 25 25 26 26 25 25 26 28 30 31 31 30 31 32 31 30 29 29 28 28 27 27 27 27 28 29 30 31 32 33 34 35 35 35 35 35 35 36 36 37 38 39
28 27 27 25 22 21 21 21 22 22 22 22 22 23 24 26 27 28 28 28 28 28 28 28 28 28 29 30 31 32 33 33 33 33 33 33 32 30 30 30 29 27 26 27 28 29 29 29 28 28 28 29 30 30 30 31 31 31 30 30 29 28 28 27 27 28 28 29 30 31 32 33 33 34 35 35 35 35 35 35 36 37 38 39 39
26 26 26 24 22 21 21 21 21 21 21 21 21 21 22 24 24 24 25 25 25 24 23 22 23 24 25 26 27 28 29 29 29 29 29 29 28 27 27 29 29 28 28 29 29 29 30 30 31 31 32 32 31 31 30 30 30 29 29 28 27 27 28 28 28 29 29 30 31 31 32 33 34 34 35 35 35 34 35 36 37 37 38 38 38
23 24 25 24 22 21 21 22 22 22 22 22 22 21 21 22 22 22 23 23 22 20 20 21 21 21 22 23 24 24 25 25 25 25 25 25 25 24 25 27 27 28 28 29 29 30 31 32 33 33 33 32 30 29 29 28 27 27 26 26 27 27 28 28 29 29 30 31 31 32 33 33 33 33 34 35 35 35 36 36 37 37 37 35 34
20 22 23 23 22 20 20 22 23 24 23 23 23 22 22 21 21 22 24 24 23 22 22 23 23 23 23 23 23 22 23 23 22 22 22 23 24 25 27 28 30 30 30 31 31 32 32 31 29 29 28 28 28 27 27 26 26 26 26 26 27 28 28 29 29 30 31 32 32 32 33 33 32 33 33 34 35 36 36 36 36 36 35 32 30
16 19 20 20 20 20 20 21 22 23 23 23 23 23 22 21 21 21 23 24 24 24 23 23 23 23 23 22 22 21 21 20 19 20 21 22 24 26 27 27 27 28 28 28 29 28 27 26 25 25 25 26 26 26 26 26 26 26 26 27 28 29 29 30 31 31 32 32 32 32 32 32 32 33 34 34 35 35 35 35 35 34 32 31 30
9 13 15 15 16 17 18 19 20 22 22 22 22 22 22 22 22 21 21 22 23 23 22 21 21 22 22 21 21 21 20 19 19 21 23 25 26 25 25 24 23 24 24 25 25 25 25 25 24 25 25 25 25 26 26 26 26 27 27 28 29 29 30 30 31 31 31 31 31 32 32 33 33 33 34 34 34 35 34 34 33 33 32 32 32
6 7 9 9 9 12 15 16 18 19 20 20 20 20 20 21 21 21 21 22 22 21 20 21 21 22 21 21 21 20 20 21 22 23 24 25 26 25 24 24 23 23 23 24 24 24 24 24 24 24 25 25 26 26 27 27 28 28 28 29 29 30 30 31 31 31 31 31 31 32 33 34 34 34 34 33 34 35 35 34 34 33 33 34 35
11 10 11 10 11 12 14 15 16 17 18 18 18 19 20 20 20 21 21 22 21 20 20 21 22 23 23 23 22 22 22 22 22 23 23 24 24 24 25 24 24 24 25 25 24 24 24 24 25 25 26 26 27 27 28 28 28 29 29 30 30 30 30 30 30 31 31 32 32 33 34 34 34 34 34 33 34 35 35 35 35 35 34 36 37
13 13 13 13 14 15 16 17 18 18 18 18 19 20 21 21 22 22 22 21 20 20 21 22 23 24 24 24 24 23 23 23 24 24 25 25 25 25 25 25 25 25 24 24 24 25 25 25 26 26 27 27 28 28 28 29 29 29 30 30 30 30 30 30 31 32 32 33 34 34 34 34 34 34 34 34 34 35 35 35 35 35 35 35 34
16 15 15 15 15 16 17 17 18 18 18 19 19 20 21 21 21 21 21 20 20 21 22 23 23 23 23 23 23 23 23 23 24 24 25 25 25 25 25 25 26 26 26 26 26 25 25 26 26 27 27 27 28 28 29 29 29 30 30 30 30 30 30 31 32 33 34 34 35 35 35 35 35 35 35 35 35 34 34 34 34 33 32 30 29
20 19 18 18 19 19 20 20 20 20 20 20 20 20 21 20 20 19 19 19 19 19 20 20 20 21 22 22 23 23 23 23 23 24 24 24 25 25 26 26 27 27 27 27 27 26 26 26 27 27 28 28 28 29 29 29 29 29 30 30 30 31 32 33 34 34 35 35 35 35 35 35 36 36 36 36 35 34 34 33 32 31 30 29 28
Wind_Direction
219 220 219 220 219 218 218 217 217 216 217 219 220 221 223 223 223 223 224 225 227 229 232 235 237 237 238 236 232 230 230 233 236 237 237 237 234 233 232 229 227 227 225 223 221 219 217 216 216 215 215 215 216 217 218 221 228 233 241 250 258 267 274 276 267 262 279 292 296 298 299 300 301 300 300 303 306 307 307 308 308 308 308 308 308
220 219 219 220 220 219 218 218 219 218 219 220 220 220 222 222 223 224 224 225 227 229 232 235 238 239 240 240 236 231 230 231 236 238 238 237 234 233 232 229 227 226 226 224 222 220 218 218 219 221 222 223 224 226 228 232 239 246 253 259 265 272 276 281 280 269 262 273 285 293 295 296 297 298 300 301 302 303 304 305 305 304 304 304 304
221 221 221 221 221 219 219 219 220 220 220 221 221 221 222 222 223 224 224 225 227 229 231 234 237 239 241 242 240 236 233 233 238 241 240 238 235 233 232 230 227 226 225 225 224 222 220 219 221 224 225 227 229 232 234 240 247 252 258 263 268 274 277 280 283 283 275 270 276 283 286 290 292 293 295 297 298 298 299 300 300 300 300 300 300
222 222 222 222 222 221 220 220 220 220 221 222 222 222 222 222 223 223 225 226 227 228 230 232 235 238 241 243 243 240 239 238 242 245 243 240 238 235 233 231 229 226 225 225 225 224 222 221 222 226 228 230 233 237 240 245 251 256 261 266 271 276 280 282 283 285 284 280 280 282 283 285 287 288 289 290 291 292 293 293 293 294 295 297 298
224 223 222 222 223 222 222 221 221 221 222 223 223 223 223 224 223 223 224 226 227 228 230 232 235 238 241 244 245 244 244 244 245 246 246 243 240 237 234 232 231 228 226 225 225 225 225 224 225 227 230 232 236 240 244 248 253 258 263 268 272 275 278 281 282 282 283 282 282 283 284 285 286 288 290 291 291 291 292 293 292 293 293 294 297
227 225 222 222 223 223 222 222 222 222 222 223 223 223 224 225 224 224 225 226 227 228 229 232 236 239 242 245 246 246 247 247 247 246 246 244 242 240 237 234 232 230 228 226 226 226 226 226 227 229 231 234 238 243 246 249 254 259 263 267 270 273 275 278 279 280 281 282 282 282 283 284 285 287 289 290 291 292 293 292 292 293 295 298 301
229 228 224 223 223 224 223 223 223 222 222 222 223 222 224 225 225 225 225 226 228 229 230 233 237 241 242 244 246 247 247 248 248 245 244 244 243 242 240 236 233 231 229 229 228 228 228 228 229 231 232 235 239 244 248 252 255 259 263 267 270 272 275 277 278 280 281 283 284 284 285 285 285 287 288 288 289 291 290 290 291 294 299 304 309
228 230 228 225 224 224 223 223 223 223 222 222 223 223 223 225 226 226 226 227 229 230 231 234 238 241 242 244 246 247 247 247 247 243 242 243 243 242 240 238 235 232 230 230 229 230 230 230 231 233 234 236 240 245 249 254 257 260 263 266 269 272 275 277 279 281 283 285 286 287 287 287 287 288 288 289 291 292 290 290 293 298 304 308 311
225 229 230 228 226 224 224 224 223 223 223 223 223 224 223 225 226 226 226 228 230 231 232 235 238 240 242 243 245 246 247 246 245 243 240 241 242 241 239 238 235 232 230 229 230 230 231 232 233 234 236 238 241 245 250 255 258 261 264 267 270 272 275 277 280 282 285 287 289 290 291 292 293 294 294 294 296 295 292 291 298 304 306 308 308
221 226 230 230 228 226 225 224 223 223 223 223 223 224 224 225 227 227 227 228 230 231 232 234 237 239 241 242 244 246 246 245 244 243 240 239 239 237 237 237 233 231 229 229 230 230 230 232 234 236 238 240 243 247 251 255 259 262 265 267 269 272 274 277 280 283 286 289 291 293 294 295 296 297 297 299 299 296 293 296 303 306 306 307 310
219 223 229 230 229 227 225 224 224 223 223 223 223 224 225 226 228 229 228 229 230 232 233 235 237 239 241 243 244 246 246 245 243 242 239 237 236 235 235 234 232 230 228 228 228 228 229 230 232 235 237 240 243 247 250 254 258 262 265 267 270 273 276 279 281 284 287 289 291 292 293 295 296 296 297 297 295 291 291 298 306 310 314 318 315
217 219 225 229 229 227 225 224 223 223 224 224 224 224 226 227 229 230 230 230 231 232 234 235 238 240 242 243 245 246 246 243 241 240 238 236 235 234 234 232 232 231 229 227 226 226 227 227 229 232 234 238 242 247 251 255 260 264 267 270 272 275 278 282 284 285 286 287 289 290 293 297 297 297 297 295 291 287 289 300 311 320 327 322 308
216 216 221 227 229 227 225 223 222 221 222 223 224 225 226 227 229 230 231 231 232 233 234 236 238 240 242 243 245 245 244 242 239 237 237 237 235 234 232 231 232 232 231 228 226 226 228 230 233 236 238 242 247 251 257 261 264 267 269 271 273 276 279 281 282 282 284 286 288 290 294 296 296 297 297 294 292 290 294 309 324 328 323 306 296
213 214 220 226 228 226 224 222 221 220 220 221 224 225 226 228 229 229 230 231 232 233 234 235 237 238 241 243 243 243 241 240 237 236 237 237 236 235 232 230 230 232 232 229 227 227 230 233 237 241 244 247 251 255 260 264 267 268 268 270 273 275 276 276 276 278 283 289 291 292 292 293 296 299 298 296 295 294 301 318 328 320 304 296 299
211 213 218 224 225 225 225 223 221 219 218 219 222 224 226 227 228 229 229 230 231 232 233 235 236 237 239 241 241 240 239 239 237 236 236 237 237 236 234 232 231 231 231 230 229 230 231 235 239 243 247 251 254 257 260 264 267 268 267 268 269 269 270 272 275 279 284 289 291 292 292 293 297 300 299 298 295 295 305 321 322 309 302 305 310
209 211 216 221 224 225 225 225 223 221 220 220 222 223 225 226 227 228 229 229 230 231 232 233 235 236 238 239 240 239 238 239 239 237 237 238 238 237 236 235 234 233 232 231 231 232 234 238 242 246 251 254 257 259 261 263 263 262 262 262 264 267 271 274 279 284 287 289 292 293 295 297 299 300 300 298 294 296 309 321 316 307 308 311 313
206 209 214 219 223 224 225 226 225 224 223 223 224 225 226 226 226 226 227 228 229 230 231 232 234 236 237 238 239 239 239 240 241 240 239 239 240 240 239 238 238 236 235 234 233 234 236 240 246 251 254 256 258 260 260 259 258 256 256 259 263 270 275 279 284 289 291 291 293 296 299 299 297 297 298 295 293 300 314 317 310 307 308 309 312
204 208 213 219 222 223 224 226 227 226 226 225 225 226 227 226 225 225 225 227 228 229 230 232 233 235 236 237 238 239 240 241 242 241 240 241 241 242 241 241 240 239 238 237 236 237 239 243 249 254 256 257 258 258 255 253 253 254 258 262 267 272 277 283 288 292 293 295 297 300 301 300 298 297 298 295 295 304 314 310 306 306 305 305 309
205 208 214 219 220 219 221 224 225 225 224 224 223 224 225 224 224 224 225 227 228 229 230 230 232 233 235 236 237 238 239 240 241 240 239 240 241 242 242 242 242 241 240 239 239 240 242 246 250 253 255 256 256 254 250 248 250 255 260 265 270 275 281 286 289 291 293 296 300 301 302 301 300 299 299 298 299 304 307 304 303 302 301 304 310
205 208 213 217 215 214 217 219 219 219 218 219 219 220 221 222 222 223 225 226 228 229 229 230 231 232 234 235 236 236 236 238 238 237 237 238 239 240 242 242 242 241 241 241 241 243 245 248 251 252 253 255 254 251 246 246 250 255 261 267 273 279 283 286 288 291 294 297 299 300 300 300 299 298 298 298 298 298 299 300 300 300 302 308 313
204 208 211 211 209 209 212 212 212 213 213 213 215 216 216 217 218 220 221 223 225 226 226 227 228 229 231 233 234 234 233 234 235 233 233 234 236 238 239 240 240 240 240 241 242 244 246 249 252 252 252 253 252 248 245 246 251 256 262 268 274 279 281 284 288 291 294 296 298 299 299 298 297 297 298 298 298 299 301 302 300 301 306 311 314
203 207 207 206 205 206 208 207 206 207 208 208 209 209 209 210 213 215 217 219 221 222 222 224 226 228 229 230 232 233 231 231 232 231 230 231 233 235 237 238 238 239 239 240 240 243 246 249 251 252 251 251 251 248 246 248 253 258 263 268 272 276 280 284 288 290 292 295 297 297 296 295 296 297 297 297 300 304 306 307 306 308 312 315 316
203 206 205 205 205 206 209 210 210 210 209 208 209 209 210 212 215 217 218 220 223 223 224 225 227 228 229 230 231 231 230 229 230 230 229 229 232 235 237 237 237 238 239 240 240 242 246 248 251 252 251 251 251 250 249 251 255 259 264 267 271 276 280 284 287 289 291 294 295 294 293 293 294 295 296 300 304 305 305 306 309 312 315 317 318
203 204 205 204 205 208 211 213 214 215 215 215 216 217 218 220 221 222 223 225 227 227 227 228 229 229 229 229 229 230 229 229 229 230 230 230 232 235 237 237 237 237 238 240 241 243 245 248 250 252 252 252 254 254 253 254 257 261 264 268 272 276 280 283 285 288 290 292 292 291 289 290 291 292 295 302 305 303 301 303 306 310 312 315 318
203 205 206 206 207 210 213 215 217 218 219 220 222 224 225 226 227 227 228 229 229 229 229 229 229 230 229 229 230 230 230 230 230 231 232 232 233 235 237 237 238 238 239 241 242 244 246 249 251 253 253 254 256 257 257 257 260 263 265 269 272 275 279 282 284 286 289 290 288 287 287 288 289 290 295 301 302 298 297 300 304 306 309 312 315
203 205 207 207 209 212 216 219 220 222 224 225 227 229 229 230 231 231 232 232 232 232 232 232 231 231 231 231 230 230 230 230 230 232 233 233 234 235 236 237 237 238 239 241 243 246 248 251 253 254 255 257 258 260 260 261 262 263 265 268 272 275 278 281 283 286 287 285 283 284 286 288 289 291 295 298 297 294 295 299 301 302 305 308 310
204 207 210 212 214 217 220 223 224 226 227 228 230 231 232 233 234 234 234 235 235 235 235 234 234 234 234 234 233 232 232 231 231 233 234 234 234 235 236 237 238 239 241 242 244 247 250 252 255 256 258 259 260 261 262 262 263 264 266 269 271 274 277 280 283 284 283 282 282 283 284 285 287 290 293 294 293 292 294 296 298 300 303 306 307
205 209 211 214 216 218 220 222 223 224 226 227 229 230 231 232 234 235 236 237 238 239 239 239 240 240 240 240 240 239 238 237 236 237 238 238 238 238 239 239 240 242 244 246 247 249 251 254 256 257 258 259 261 262 262 263 264 265 267 269 272 274 277 279 280 281 280 281 282 283 283 284 286 289 291 291 290 292 294 296 298 300 303 304 305
201 204 205 207 209 212 215 218 219 220 222 224 226 228 230 232 235 237 238 239 240 241 242 243 243 243 243 243 242 241 240 239 239 240 241 242 243 242 241 241 242 242 244 246 248 250 252 254 255 257 259 260 261 263 263 264 265 266 268 270 273 275 277 277 277 277 277 277 279 280 282 284 286 286 287 288 291 293 295 297 299 301 303 304 305
192 192 197 201 205 208 213 217 219 221 223 225 227 228 230 232 235 236 237 239 241 242 242 243 243 243 243 242 242 241 240 239 239 239 239 241 243 244 244 245 245 245 246 247 249 251 253 255 256 258 259 260 262 263 264 265 266 268 270 272 274 274 275 274 273 273 274 275 276 279 281 283 283 284 286 289 291 294 296 298 301 303 304 305 306
195 196 200 203 203 202 205 209 212 213 216 219 221 221 223 226 229 230 231 233 235 237 240 242 243 244 244 243 243 243 243 242 242 241 241 242 245 247 249 251 252 253 254 255 256 257 259 260 261 263 264 265 265 266 266 267 268 270 271 273 273 272 271 269 269 270 273 276 277 279 282 282 283 286 288 290 293 295 298 300 302 304 305 305 307
199 203 203 200 195 192 192 195 198 200 204 208 211 213 217 222 224 225 227 228 228 230 233 237 240 242 244 244 244 245 245 245 246 245 245 246 248 250 253 255 257 259 260 261 262 264 265 266 266 267 268 268 268 268 269 269 270 270 271 271 270 268 266 266 267 270 273 276 279 282 283 284 286 289 292 293 295 298 300 302 303 303 304 305 307
199 201 200 197 194 194 197 201 204 208 212 215 217 219 223 227 229 229 228 228 228 227 228 232 236 238 241 243 244 245 244 245 246 246 246 247 249 251 253 256 258 259 261 263 264 266 268 270 272 272 271 269 268 268 269 269 269 268 267 267 266 265 266 267 269 271 272 275 279 283 285 287 289 292 294 297 298 300 301 301 301 301 302 304 308
197 197 197 198 199 203 206 210 212 215 220 223 225 226 229 232 234 234 232 230 229 227 227 228 231 234 237 239 241 242 241 241 242 243 243 245 247 249 251 252 253 255 257 259 261 263 265 268 269 270 269 267 268 269 269 268 266 265 265 264 264 266 269 269 268 270 273 275 279 283 286 289 292 294 296 298 299 300 300 300 299 300 302 304 308
193 194 194 197 200 203 207 212 217 222 227 230 232 233 234 235 235 234 233 232 230 228 227 228 230 233 236 239 241 242 242 241 241 241 241 243 244 246 248 249 251 252 255 259 261 261 260 260 261 262 263 264 268 270 269 265 263 262 261 262 263 265 265 264 264 267 272 276 279 284 287 290 293 295 297 298 299 299 299 298 299 301 303 306 309
194 194 196 200 203 206 211 219 225 230 234 236 238 238 238 238 236 234 233 232 232 231 231 231 232 234 237 240 243 244 245 246 246 245 245 245 246 248 250 252 253 254 257 260 261 262 262 263 261 259 257 259 262 264 262 258 257 257 257 259 261 263 263 262 263 267 271 275 280 285 289 292 295 296 296 297 297 297 297 298 300 302 304 306 309
198 199 201 204 207 212 219 226 231 235 237 239 239 238 238 238 237 235 233 232 231 231 231 232 233 235 237 240 242 244 246 248 250 250 250 250 251 252 253 254 254 256 258 260 261 262 263 265 263 257 251 250 254 258 259 257 257 258 260 261 262 264 265 266 267 270 272 277 282 287 290 293 294 294 294 295 295 296 297 299 300 302 304 306 309
202 205 207 210 213 218 225 231 235 237 237 236 236 236 237 238 237 236 235 234 233 232 232 232 233 234 235 237 240 243 245 248 250 251 252 253 253 253 254 254 255 257 258 259 259 255 248 245 248 248 247 249 255 259 261 260 259 261 264 265 266 267 267 268 269 271 274 280 284 288 290 291 291 291 292 293 294 295 296 297 299 302 305 309 312
203 205 208 211 215 221 227 232 234 234 233 232 232 234 235 236 236 236 236 236 237 237 237 236 236 236 236 237 240 242 245 248 250 252 253 254 255 255 255 256 255 251 248 250 252 249 240 234 236 239 241 246 251 254 256 258 260 261 262 264 267 268 269 269 270 273 277 282 285 287 288 288 289 290 291 292 292 293 295 297 300 304 308 310 312
200 203 205 207 210 215 221 226 228 228 227 228 230 232 234 235 236 237 237 237 238 239 239 240 240 240 240 241 242 243 245 246 248 249 250 252 255 257 257 256 252 244 241 244 248 247 245 245 246 245 243 245 249 252 254 258 260 262 263 264 265 267 268 270 272 276 279 282 283 285 286 287 288 289 290 290 292 294 297 300 303 306 308 309 310
197 200 202 201 202 207 213 219 223 225 226 227 228 230 233 235 236 236 237 238 239 239 240 241 242 243 244 244 244 244 245 244 244 245 245 247 252 254 252 250 245 239 239 242 244 246 249 251 250 248 246 248 252 256 258 259 260 261 262 262 264 267 269 271 274 276 278 280 281 283 285 286 288 289 291 293 296 299 301 303 305 307 308 308 308
197 199 200 200 202 207 213 218 222 225 228 230 230 230 232 232 232 233 235 237 237 237 236 237 238 238 239 240 241 243 243 240 239 241 243 245 247 247 243 239 237 236 237 239 241 244 247 247 246 247 249 251 254 255 256 256 256 257 259 261 264 267 269 271 272 274 277 279 282 284 286 288 290 292 295 297 299 301 303 304 305 306 306 307 307
197 201 204 204 205 208 212 216 220 224 227 230 232 233 234 233 230 226 226 228 231 230 228 229 231 232 234 237 240 239 236 233 234 239 243 244 243 239 234 229 229 231 233 235 236 237 239 241 243 246 248 250 251 253 254 255 256 257 259 262 264 266 268 270 273 276 279 282 284 286 289 291 294 296 298 299 300 300 301 302 303 304 305 305 304
199 203 208 210 210 211 212 216 219 222 225 227 228 231 234 235 232 226 222 224 228 229 225 226 231 235 239 241 241 237 235 237 240 241 242 240 237 234 232 231 232 233 235 237 238 239 240 242 244 246 248 251 254 256 257 258 258 259 260 262 265 268 271 275 278 280 281 284 286 289 291 293 295 296 297 297 297 298 299 301 302 302 303 302 300
202 203 209 215 220 220 219 220 223 225 227 227 228 229 231 232 233 231 228 226 229 230 229 228 230 234 237 240 241 240 243 245 244 239 237 237 236 236 235 235 235 236 237 239 241 243 245 248 250 253 255 256 256 257 258 259 260 262 264 267 269 272 275 277 279 281 284 286 289 291 292 293 294 295 295 295 295 296 298 300 301 301 300 299 297
203 199 201 211 223 228 227 228 229 230 230 230 230 230 232 232 233 235 234 231 231 233 232 230 230 232 234 235 236 238 240 240 238 235 234 235 236 236 236 235 234 236 239 242 245 248 251 254 255 255 255 255 255 257 258 260 261 264 267 269 271 274 276 279 282 285 287 289 291 291 292 293 294 295 295 294 293 293 294 296 297 297 295 295 296
235 219 209 214 233 239 237 234 233 232 233 233 233 232 233 234 234 235 237 237 237 233 228 224 224 228 231 231 232 233 234 234 233 232 232 232 233 234 236 238 241 244 249 253 256 258 258 257 255 254 254 254 255 256 258 260 263 266 269 273 276 278 281 283 285 287 288 289 290 291 292 294 294 294 294 294 293 293 293 294 294 293 291 292 294
246 247 245 248 256 257 253 249 245 240 237 235 234 235 236 237 237 237 238 240 240 235 228 223 223 226 228 230 232 233 232 231 231 231 231 232 234 235 237 240 245 249 253 256 257 258 257 255 254 254 255 257 259 261 264 267 270 273 276 279 281 282 284 284 285 287 288 290 291 291 292 292 293 292 292 293 292 291 291 291 291 290 289 289 291
243 245 249 253 258 259 256 254 252 249 245 240 238 238 239 240 240 239 239 238 236 229 223 220 221 224 228 230 232 233 233 232 232 233 234 236 238 240 243 246 249 251 253 254 253 253 254 254 256 258 260 263 266 269 271 274 275 277 278 279 280 281 282 284 286 288 290 290 291 290 290 290 290 290 291 291 290 289 288 287 287 287 287 287 289
242 241 243 246 249 250 249 248 249 251 251 249 245 242 240 240 239 237 235 233 230 226 223 223 224 225 227 229 231 233 234 234 233 233 234 237 240 242 245 248 250 251 253 253 254 255 257 260 262 265 267 269 270 271 273 274 276 277 277 278 279 281 284 286 288 289 290 290 290 290 290 290 290 290 290 290 289 289 288 287 286 286 287 288 288
240 240 240 241 240 239 239 243 248 251 252 250 246 243 240 238 233 228 225 222 222 222 223 222 221 221 222 223 226 229 230 232 233 234 235 236 239 242 244 247 249 252 254 256 258 260 262 264 266 268 269 270 272 273 274 275 277 277 279 281 283 285 288 289 290 290 290 290 290 290 290 290 290 289 289 289 289 289 289 287 286 286 287 289 289
Height
3187 3190 3192 3194 3196 3199 3201 3203 3205 3207 3209 3211 3213 3215 3217 3220 3222 3223 3225 3227 3228 3230 3231 3233 3234 3236 3237 3238 3239 3240 3240 3241 3242 3242 3243 3244 3245 3245 3246 3247 3248 3249 3250 3251 3252 3253 3253 3254 3254 3255 3255 3256 3256 3257 3257 3258 3258 3258 3259 3259 3259 3259 3260 3260 3261 3262 3261 3261 3261 3261 3260 3260 3260 3259 3258 3258 3257 3256 3255 3254 3252 3250 3249 3247 3246
3184 3187 3189 3191 3194 3196 3199 3201 3203 3205 3206 3208 3210 3213 3215 3217 3219 3221 3223 3224 3226 3228 3229 3231 3232 3233 3235 3236 3237 3238 3239 3239 3240 3241 3241 3242 3243 3243 3244 3245 3246 3247 3248 3249 3250 3251 3252 3253 3253 3254 3254 3255 3255 3256 3256 3257 3257 3257 3258 3258 3258 3259 3259 3260 3260 3261 3261 3261 3260 3260 3260 3259 3259 3258 3258 3257 3256 3254 3253 3252 3250 3248 3247 3245 3244
3182 3184 3187 3189 3191 3194 3196 3198 3200 3202 3204 3206 3208 3210 3212 3214 3216 3218 3220 3222 3224 3225 3227 3229 3230 3231 3233 3234 3235 3236 3237 3238 3238 3239 3240 3241 3241 3241 3242 3243 3244 3245 3246 3247 3248 3249 3250 3251 3252 3252 3253 3253 3254 3255 3255 3256 3256 3256 3257 3257 3257 3258 3258 3258 3259 3260 3260 3261 3260 3260 3259 3258 3258 3257 3257 3256 3254 3253 3251 3249 3247 3246 3244 3243 3241
3179 3181 3184 3186 3189 3191 3193 3195 3197 3199 3201 3203 3206 3208 3210 3212 3214 3216 3218 3220 3221 3223 3225 3226 3228 3229 3230 3231 3233 3234 3235 3236 3237 3237 3238 3239 3239 3240 3240 3241 3242 3243 3244 3245 3246 3247 3248 3249 3250 3251 3251 3252 3253 3253 3254 3254 3255 3255 3255 3256 3256 3256 3256 3257 3257 3258 3258 3259 3259 3259 3258 3257 3256 3256 3255 3254 3253 3251 3249 3247 3245 3244 3243 3241 3238
3176 3178 3181 3184 3186 3188 3190 3192 3194 3197 3199 3201 3204 3206 3208 3209 3211 3213 3215 3217 3219 3221 3223 3224 3225 3227 3228 3229 3231 3232 3233 3234 3235 3235 3236 3237 3237 3238 3238 3239 3240 3241 3242 3243 3244 3245 3246 3247 3249 3249 3250 3251 3251 3252 3252 3253 3253 3253 3254 3254 3254 3254 3254 3255 3255 3256 3256 3257 3257 3257 3257 3256 3254 3254 3253 3251 3250 3248 3246 3244 3242 3241 3240 3239 3237
3173 3176 3178 3181 3183 3185 3187 3189 3191 3194 3196 3199 3201 3203 3205 3207 3209 3211 3213 3215 3217 3219 3220 3222 3223 3225 3226 3227 3228 3230 3231 3232 3232 3233 3234 3234 3235 3236 3236 3237 3238 3239 3240 3240 3241 3243 3244 3245 3246 3247 3248 3249 3250 3250 3251 3251 3252 3252 3252 3252 3252 3252 3253 3253 3253 3253 3254 3254 3255 3255 3254 3253 3252 3251 3250 3248 3246 3245 3243 3241 3239 3238 3237 3237 3236
3171 3173 3176 3178 3180 3182 3184 3186 3189 3191 3194 3196 3198 3200 3203 3205 3207 3209 3211 3213 3214 3216 3218 3219 3221 3222 3224 3225 3226 3227 3228 3229 3230 3231 3232 3232 3233 3234 3234 3235 3236 3237 3237 3238 3239 3240 3242 3243 3244 3245 3246 3247 3248 3248 3248 3249 3250 3250 3250 3250 3250 3250 3251 3251 3251 3251 3251 3251 3252 3252 3251 3250 3249 3248 3247 3245 3243 3242 3240 3237 3236 3236 3236 3235 3234
3168 3170 3173 3175 3177 3179 3182 3184 3186 3189 3191 3194 3196 3198 3200 3202 3204 3206 3208 3210 3212 3214 3216 3217 3219 3220 3221 3223 3224 3225 3226 3227 3228 3229 3229 3230 3231 3232 3232 3233 3234 3235 3235 3236 3237 3238 3239 3240 3242 3243 3244 3245 3246 3246 3246 3247 3247 3248 3248 3248 3248 3248 3248 3248 3248 3248 3248 3248 3248 3248 3247 3246 3245 3244 3243 3242 3241 3239 3237 3235 3234 3235 3235 3234 3233
3165 3168 3170 3172 3174 3177 3179 3181 3184 3186 3188 3191 3193 3195 3197 3199 3202 3204 3206 3208 3210 3212 3214 3215 3216 3217 3219 3220 3221 3222 3223 3224 3225 3227 3228 3228 3229 3230 3230 3231 3232 3233 3233 3234 3234 3235 3237 3238 3239 3241 3242 3243 3244 3244 3244 3244 3245 3245 3246 3246 3246 3246 3246 3246 3246 3245 3245 3244 3244 3244 3243 3242 3241 3240 3238 3238 3237 3236 3234 3233 3233 3233 3232 3232 3231
3163 3165 3167 3169 3172 3174 3176 3178 3181 3183 3186 3188 3190 3192 3195 3197 3199 3201 3203 3206 3207 3209 3211 3212 3213 3215 3216 3217 3219 3220 3221 3222 3223 3225 3226 3227 3227 3228 3229 3230 3231 3231 3231 3232 3232 3233 3235 3236 3237 3238 3239 3240 3241 3242 3242 3242 3242 3243 3243 3243 3243 3243 3243 3243 3243 3243 3242 3241 3240 3240 3239 3239 3238 3236 3234 3234 3234 3232 3231 3232 3233 3232 3229 3229 3229
3161 3163 3165 3166 3169 3171 3173 3176 3178 3181 3183 3185 3188 3190 3192 3194 3196 3198 3201 3203 3205 3206 3208 3209 3211 3212 3213 3215 3216 3217 3218 3220 3221 3223 3224 3225 3225 3226 3227 3228 3229 3229 3230 3230 3231 3232 3233 3234 3235 3236 3237 3238 3239 3239 3240 3240 3240 3241 3241 3241 3240 3240 3240 3240 3240 3240 3239 3238 3238 3237 3236 3236 3235 3234 3232 3231 3230 3230 3231 3232 3232 3231 3229 3227 3225
3158 3160 3162 3163 3165 3168 3171 3173 3175 3178 3180 3182 3185 3187 3189 3191 3193 3195 3198 3200 3202 3204 3205 3207 3208 3209 3211 3212 3213 3214 3216 3217 3219 3221 3222 3222 3223 3224 3225 3226 3227 3227 3228 3229 3229 3230 3231 3232 3233 3234 3235 3236 3236 3237 3238 3238 3238 3238 3238 3238 3237 3237 3238 3237 3237 3237 3237 3236 3235 3234 3234 3233 3232 3231 3230 3228 3225 3225 3230 3234 3232 3230 3228 3224 3219
3155 3157 3159 3160 3163 3165 3168 3170 3172 3175 3177 3180 3182 3184 3186 3188 3190 3193 3195 3197 3199 3200 3202 3204 3205 3206 3208 3209 3210 3212 3213 3215 3216 3218 3219 3220 3221 3222 3223 3224 3225 3225 3226 3227 3228 3229 3229 3230 3231 3232 3233 3234 3234 3235 3235 3236 3236 3236 3235 3235 3235 3235 3235 3235 3235 3235 3234 3234 3232 3232 3232 3231 3229 3228 3227 3225 3220 3218 3224 3231 3231 3227 3223 3218 3214
3151 3153 3155 3157 3160 3163 3165 3167 3170 3172 3174 3177 3179 3181 3183 3185 3187 3190 3192 3194 3195 3197 3199 3200 3202 3203 3205 3206 3208 3210 3211 3212 3214 3216 3217 3218 3219 3220 3220 3222 3222 3223 3224 3225 3226 3227 3228 3228 3229 3230 3231 3232 3232 3233 3233 3234 3233 3233 3233 3232 3232 3233 3233 3232 3232 3232 3232 3231 3230 3229 3229 3228 3227 3225 3223 3222 3218 3214 3219 3226 3226 3221 3216 3212 3211
3147 3150 3152 3154 3157 3159 3162 3164 3167 3169 3171 3174 3176 3178 3180 3182 3184 3186 3188 3190 3192 3194 3196 3197 3199 3200 3202 3203 3205 3207 3208 3209 3211 3213 3215 3216 3216 3217 3218 3219 3219 3220 3221 3222 3224 3225 3226 3227 3227 3228 3229 3230 3230 3231 3231 3231 3231 3230 3230 3230 3230 3230 3230 3229 3229 3229 3229 3229 3227 3227 3225 3224 3224 3223 3221 3218 3213 3213 3220 3224 3220 3216 3212 3209 3208
3144 3147 3149 3151 3154 3156 3159 3161 3163 3166 3168 3171 3173 3175 3177 3179 3181 3183 3185 3187 3189 3190 3192 3194 3195 3197 3199 3200 3202 3203 3205 3206 3208 3210 3212 3213 3213 3214 3215 3215 3216 3218 3219 3220 3221 3222 3223 3224 3225 3226 3227 3227 3228 3229 3229 3229 3228 3227 3227 3228 3228 3228 3227 3227 3226 3226 3226 3226 3225 3223 3221 3220 3220 3219 3219 3215 3208 3210 3219 3221 3216 3213 3210 3206 3205
3141 3143 3146 3149 3151 3154 3156 3158 3160 3163 3165 3168 3170 3172 3174 3176 3178 3180 3182 3184 3185 3187 3189 3191 3193 3194 3196 3197 3198 3200 3202 3203 3205 3207 3209 3209 3210 3211 3212 3212 3213 3215 3216 3217 3218 3219 3220 3222 3223 3223 3224 3225 3225 3226 3226 3226 3225 3225 3225 3226 3226 3225 3225 3224 3224 3223 3223 3222 3221 3220 3218 3217 3215 3214 3215 3212 3205 3207 3214 3214 3211 3210 3208 3204 3203
3138 3141 3143 3146 3148 3151 3153 3155 3157 3159 3162 3165 3167 3169 3171 3173 3175 3177 3179 3180 3182 3184 3186 3188 3190 3191 3192 3194 3195 3197 3199 3200 3202 3204 3205 3206 3207 3207 3208 3209 3210 3211 3213 3214 3215 3216 3217 3219 3220 3220 3221 3222 3223 3223 3223 3223 3222 3222 3223 3223 3223 3223 3222 3222 3222 3220 3219 3218 3218 3217 3216 3214 3211 3210 3210 3208 3205 3207 3210 3208 3206 3207 3204 3202 3200
3135 3138 3141 3143 3146 3148 3150 3152 3154 3156 3159 3162 3164 3166 3168 3170 3172 3174 3176 3178 3179 3181 3183 3185 3186 3187 3189 3190 3192 3194 3196 3197 3198 3200 3201 3202 3203 3204 3205 3205 3206 3208 3210 3211 3212 3213 3214 3216 3217 3218 3219 3220 3220 3220 3220 3220 3219 3219 3220 3220 3220 3220 3220 3220 3219 3218 3217 3216 3215 3214 3213 3211 3208 3205 3204 3203 3202 3205 3206 3203 3202 3202 3200 3198 3196
3133 3135 3138 3141 3143 3146 3148 3150 3152 3154 3156 3158 3161 3163 3165 3168 3170 3171 3173 3175 3176 3178 3180 3181 3183 3184 3185 3187 3188 3190 3192 3193 3194 3196 3198 3199 3200 3201 3201 3201 3203 3205 3206 3208 3209 3210 3211 3212 3214 3215 3216 3217 3217 3217 3217 3217 3216 3217 3217 3217 3217 3218 3218 3217 3216 3215 3214 3213 3212 3211 3209 3208 3205 3202 3199 3198 3197 3200 3202 3200 3198 3197 3196 3194 3192
3130 3133 3135 3138 3141 3144 3146 3147 3149 3151 3153 3156 3158 3160 3162 3165 3166 3168 3170 3172 3173 3175 3176 3178 3179 3181 3182 3183 3185 3186 3188 3189 3190 3192 3194 3195 3196 3197 3197 3198 3200 3202 3203 3204 3206 3207 3208 3209 3210 3211 3213 3214 3214 3214 3214 3214 3214 3214 3214 3215 3215 3215 3215 3214 3213 3212 3211 3210 3208 3207 3205 3204 3202 3199 3196 3194 3192 3192 3194 3195 3194 3193 3192 3190 3188
3128 3130 3133 3136 3139 3142 3144 3146 3147 3149 3151 3153 3155 3157 3160 3162 3163 3165 3167 3169 3170 3172 3173 3175 3176 3178 3179 3180 3181 3183 3184 3186 3187 3188 3190 3191 3192 3192 3193 3194 3197 3198 3199 3201 3202 3204 3205 3206 3207 3208 3209 3210 3210 3210 3211 3211 3211 3211 3212 3212 3212 3212 3211 3211 3210 3209 3208 3206 3205 3203 3201 3200 3198 3196 3194 3192 3189 3187 3186 3186 3187 3187 3187 3185 3183
3126 3128 3131 3134 3137 3140 3142 3144 3146 3147 3149 3151 3153 3155 3157 3158 3160 3162 3163 3165 3166 3168 3170 3171 3173 3174 3175 3177 3178 3179 3181 3182 3183 3185 3186 3187 3188 3189 3190 3192 3193 3195 3196 3197 3199 3200 3201 3202 3203 3204 3205 3206 3206 3207 3208 3208 3208 3209 3209 3209 3209 3208 3208 3207 3206 3205 3204 3203 3201 3199 3197 3196 3195 3193 3191 3189 3187 3185 3183 3181 3180 3179 3179 3179 3177
3123 3126 3129 3132 3135 3137 3139 3141 3143 3145 3147 3149 3150 3152 3154 3155 3157 3158 3160 3162 3163 3165 3167 3168 3170 3171 3172 3173 3175 3176 3177 3179 3180 3181 3183 3184 3185 3186 3187 3188 3190 3192 3193 3194 3195 3197 3197 3198 3199 3200 3201 3202 3202 3203 3204 3204 3205 3205 3206 3206 3205 3205 3204 3203 3202 3201 3200 3199 3197 3196 3194 3192 3191 3190 3188 3186 3184 3183 3181 3179 3177 3175 3174 3173 3171
3120 3123 3127 3130 3132 3134 3136 3138 3140 3142 3144 3145 3147 3149 3151 3152 3153 3155 3157 3159 3160 3162 3163 3165 3166 3168 3169 3170 3172 3173 3175 3176 3177 3178 3179 3181 3182 3183 3184 3185 3187 3188 3189 3191 3192 3193 3194 3195 3195 3196 3198 3199 3199 3199 3200 3201 3201 3202 3202 3202 3201 3201 3201 3200 3199 3197 3196 3195 3193 3192 3190 3189 3188 3186 3185 3183 3182 3180 3179 3177 3175 3173 3172 3170 3168
3118 3121 3124 3127 3129 3131 3133 3135 3137 3139 3141 3142 3144 3146 3148 3149 3151 3152 3154 3156 3157 3158 3160 3162 3163 3164 3166 3167 3168 3170 3171 3173 3174 3175 3176 3178 3179 3180 3181 3182 3183 3184 3186 3187 3188 3189 3190 3191 3192 3193 3194 3195 3195 3196 3197 3197 3198 3198 3198 3198 3198 3197 3197 3196 3194 3193 3192 3191 3189 3188 3186 3185 3184 3183 3181 3180 3179 3177 3176 3175 3173 3171 3169 3168 3166
3116 3119 3122 3124 3127 3129 3131 3133 3135 3137 3138 3140 3142 3143 3145 3146 3148 3149 3151 3153 3154 3155 3157 3158 3160 3161 3162 3163 3165 3167 3168 3170 3171 3172 3173 3174 3175 3177 3178 3179 3180 3181 3182 3183 3184 3185 3187 3188 3189 3190 3190 3191 3192 3192 3193 3194 3194 3194 3194 3194 3194 3193 3192 3191 3190 3189 3187 3186 3185 3184 3183 3182 3180 3179 3178 3176 3175 3174 3173 3172 3171 3169 3167 3165 3163
3115 3118 3121 3123 3125 3127 3129 3131 3133 3134 3136 3138 3139 3141 3142 3144 3145 3147 3148 3150 3151 3153 3154 3155 3157 3158 3159 3161 3162 3164 3165 3167 3168 3168 3170 3171 3173 3174 3175 3176 3177 3178 3179 3180 3181 3182 3183 3184 3185 3186 3186 3187 3188 3188 3189 3190 3190 3190 3190 3189 3189 3188 3187 3186 3185 3184 3183 3182 3181 3180 3179 3178 3177 3176 3174 3172 3171 3170 3170 3168 3167 3166 3164 3162 3160
3114 3117 3119 3121 3123 3125 3127 3129 3130 3132 3134 3135 3136 3138 3139 3141 3142 3144 3146 3147 3148 3150 3151 3153 3154 3155 3157 3158 3159 3160 3162 3163 3165 3166 3167 3168 3169 3170 3171 3172 3173 3174 3175 3176 3177 3178 3179 3181 3181 3182 3182 3183 3184 3184 3185 3185 3185 3185 3185 3184 3184 3183 3182 3181 3180 3180 3179 3178 3178 3177 3176 3174 3173 3172 3170 3169 3168 3166 3165 3164 3163 3161 3160 3158 3156
3112 3114 3117 3119 3121 3123 3125 3126 3128 3129 3131 3133 3134 3135 3137 3138 3140 3141 3143 3144 3145 3147 3148 3149 3151 3152 3153 3155 3156 3156 3158 3159 3161 3162 3163 3164 3164 3165 3166 3168 3169 3170 3171 3173 3173 3174 3175 3176 3177 3178 3179 3179 3179 3180 3180 3180 3180 3180 3179 3179 3178 3177 3177 3176 3176 3175 3175 3175 3174 3173 3172 3171 3169 3168 3167 3165 3164 3162 3161 3159 3158 3157 3155 3153 3151
3109 3111 3114 3116 3119 3121 3122 3124 3126 3127 3129 3131 3132 3134 3135 3136 3137 3139 3140 3141 3142 3144 3145 3146 3147 3149 3150 3152 3152 3153 3154 3155 3157 3158 3159 3159 3160 3161 3163 3164 3166 3168 3169 3170 3170 3171 3172 3173 3174 3174 3175 3175 3175 3175 3175 3174 3174 3174 3174 3173 3173 3172 3172 3172 3172 3172 3171 3171 3170 3169 3168 3167 3166 3164 3163 3161 3160 3158 3157 3155 3154 3152 3150 3148 3146
3106 3109 3111 3114 3116 3118 3120 3122 3124 3126 3127 3129 3130 3131 3133 3134 3135 3136 3137 3138 3139 3141 3142 3143 3144 3145 3147 3148 3148 3149 3151 3152 3153 3154 3155 3156 3157 3158 3160 3162 3163 3165 3166 3166 3167 3168 3168 3168 3170 3171 3171 3171 3170 3170 3169 3169 3169 3169 3168 3168 3168 3168 3168 3168 3168 3168 3168 3167 3166 3165 3164 3163 3162 3160 3159 3157 3156 3154 3153 3151 3150 3148 3146 3144 3142
3103 3106 3108 3111 3113 3115 3117 3119 3121 3123 3125 3126 3128 3129 3130 3131 3132 3133 3134 3135 3136 3138 3139 3140 3141 3142 3144 3145 3145 3146 3148 3149 3149 3150 3152 3153 3154 3155 3157 3159 3160 3161 3162 3162 3163 3163 3164 3164 3166 3167 3167 3166 3165 3165 3165 3164 3164 3164 3164 3164 3164 3164 3165 3165 3165 3164 3164 3163 3162 3161 3160 3159 3158 3156 3155 3153 3152 3150 3149 3147 3146 3144 3143 3141 3138
3101 3103 3105 3108 3110 3112 3114 3116 3118 3120 3121 3123 3125 3126 3127 3128 3129 3130 3131 3132 3133 3134 3135 3136 3138 3139 3140 3142 3142 3144 3145 3145 3146 3147 3148 3150 3151 3153 3154 3155 3156 3157 3157 3157 3158 3159 3159 3160 3161 3162 3162 3161 3161 3161 3160 3160 3160 3160 3160 3160 3160 3160 3160 3160 3161 3160 3160 3159 3158 3157 3156 3154 3153 3152 3151 3149 3148 3146 3145 3143 3142 3140 3139 3137 3135
3098 3100 3103 3106 3108 3110 3111 3113 3115 3116 3118 3120 3121 3122 3123 3124 3125 3126 3127 3128 3129 3130 3131 3133 3134 3135 3137 3138 3139 3140 3142 3142 3143 3144 3146 3147 3149 3150 3151 3151 3152 3152 3153 3153 3153 3154 3155 3155 3156 3156 3157 3157 3157 3156 3156 3157 3157 3157 3157 3157 3157 3156 3156 3155 3155 3155 3155 3155 3154 3152 3151 3150 3149 3148 3147 3145 3144 3142 3141 3139 3137 3135 3133 3131 3129
3096 3098 3100 3103 3104 3106 3107 3109 3111 3113 3114 3116 3117 3118 3119 3120 3120 3121 3123 3124 3126 3127 3128 3129 3130 3132 3133 3135 3136 3137 3138 3139 3140 3142 3143 3144 3145 3146 3146 3147 3147 3148 3149 3149 3149 3149 3150 3150 3150 3151 3152 3152 3152 3152 3153 3153 3153 3153 3154 3153 3153 3152 3152 3151 3151 3150 3151 3150 3149 3148 3147 3146 3145 3144 3142 3141 3140 3138 3136 3135 3133 3130 3128 3126 3125
3092 3094 3096 3098 3100 3101 3103 3105 3107 3108 3110 3111 3112 3113 3114 3115 3116 3118 3120 3121 3122 3123 3125 3126 3127 3128 3130 3131 3133 3134 3135 3136 3137 3139 3139 3140 3141 3142 3141 3142 3143 3144 3144 3143 3144 3145 3146 3145 3145 3145 3146 3147 3147 3148 3148 3148 3148 3150 3151 3151 3150 3150 3149 3148 3147 3147 3147 3146 3145 3144 3143 3141 3141 3140 3138 3137 3135 3134 3132 3130 3128 3126 3124 3122 3120
3088 3090 3092 3094 3095 3097 3099 3101 3102 3104 3105 3106 3108 3109 3110 3111 3113 3114 3116 3117 3118 3119 3121 3122 3124 3125 3126 3128 3129 3131 3132 3133 3134 3135 3136 3137 3137 3137 3137 3138 3139 3140 3139 3139 3139 3139 3140 3140 3140 3140 3141 3142 3142 3143 3144 3145 3145 3146 3147 3147 3147 3146 3145 3144 3143 3143 3142 3141 3140 3139 3138 3137 3137 3136 3134 3133 3131 3129 3128 3126 3124 3122 3120 3118 3116
3084 3086 3088 3090 3092 3094 3096 3097 3098 3100 3101 3102 3103 3105 3106 3108 3109 3110 3112 3113 3115 3116 3117 3119 3120 3121 3123 3124 3126 3127 3129 3130 3130 3132 3133 3133 3133 3133 3133 3134 3135 3135 3135 3134 3134 3134 3135 3136 3137 3137 3138 3139 3139 3140 3141 3141 3141 3141 3141 3141 3141 3141 3141 3140 3139 3139 3138 3137 3136 3135 3134 3133 3132 3131 3130 3128 3127 3125 3123 3121 3120 3118 3116 3114 3112
3080 3082 3083 3085 3088 3090 3092 3094 3095 3096 3097 3098 3099 3101 3102 3104 3105 3107 3108 3110 3111 3112 3113 3115 3116 3118 3119 3121 3122 3123 3124 3125 3126 3128 3129 3129 3129 3129 3129 3129 3130 3131 3131 3131 3131 3131 3132 3133 3134 3135 3136 3137 3137 3137 3138 3138 3137 3137 3137 3136 3136 3136 3136 3135 3135 3134 3133 3132 3131 3130 3130 3129 3128 3127 3125 3124 3123 3121 3119 3117 3115 3114 3112 3110 3108
3076 3078 3080 3082 3084 3087 3089 3091 3092 3093 3094 3095 3095 3097 3098 3100 3102 3103 3105 3106 3107 3108 3110 3111 3112 3114 3115 3116 3117 3118 3119 3120 3121 3122 3123 3123 3124 3125 3124 3124 3125 3126 3127 3127 3128 3128 3129 3130 3131 3132 3132 3133 3133 3133 3134 3133 3133 3133 3133 3132 3132 3132 3131 3131 3130 3129 3129 3128 3127 3126 3125 3125 3124 3122 3121 3119 3118 3116 3114 3113 3111 3109 3107 3106 3104
3073 3075 3077 3078 3081 3084 3086 3088 3090 3090 3091 3092 3092 3093 3094 3096 3098 3100 3101 3102 3103 3104 3106 3107 3108 3109 3110 3112 3112 3113 3115 3116 3117 3117 3117 3118 3119 3119 3120 3120 3121 3122 3123 3124 3124 3125 3126 3126 3127 3127 3128 3128 3128 3129 3129 3129 3129 3129 3129 3129 3129 3128 3127 3127 3126 3125 3124 3124 3123 3122 3121 3120 3119 3118 3116 3114 3113 3112 3110 3109 3107 3105 3103 3101 3099
3072 3073 3074 3076 3078 3081 3083 3085 3087 3088 3088 3089 3089 3090 3091 3092 3094 3096 3097 3098 3099 3100 3102 3103 3104 3105 3106 3107 3108 3109 3110 3111 3112 3113 3113 3113 3114 3114 3115 3117 3118 3119 3119 3120 3121 3121 3122 3122 3122 3123 3123 3124 3124 3125 3125 3125 3126 3126 3126 3125 3125 3124 3123 3122 3122 3121 3120 3119 3119 3118 3117 3116 3115 3113 3112 3110 3109 3108 3106 3105 3103 3101 3099 3098 3096
3070 3071 3072 3074 3077 3079 3081 3083 3084 3085 3085 3086 3086 3087 3088 3089 3091 3092 3094 3095 3096 3097 3099 3100 3101 3102 3103 3103 3104 3105 3106 3107 3108 3108 3108 3109 3110 3111 3112 3113 3115 3115 3115 3116 3116 3117 3117 3118 3118 3119 3120 3120 3121 3121 3122 3122 3122 3122 3122 3121 3120 3120 3119 3118 3118 3117 3116 3115 3114 3114 3113 3111 3110 3109 3107 3106 3104 3102 3101 3100 3098 3097 3095 3094 3092
3069 3068 3069 3072 3075 3078 3079 3080 3082 3082 3083 3083 3083 3084 3085 3086 3087 3088 3090 3091 3092 3094 3095 3097 3098 3099 3100 3100 3101 3101 3102 3103 3104 3105 3106 3107 3108 3108 3109 3110 3111 3112 3112 3113 3113 3114 3114 3114 3115 3115 3116 3116 3117 3117 3118 3118 3118 3118 3117 3117 3116 3115 3115 3114 3113 3113 3112 3111 3110 3109 3108 3107 3106 3104 3103 3101 3099 3098 3096 3095 3093 3092 3090 3089 3088
3068 3067 3068 3070 3074 3076 3078 3078 3079 3080 3080 3081 3081 3081 3081 3082 3083 3084 3086 3087 3089 3090 3092 3093 3094 3095 3096 3097 3097 3098 3099 3099 3100 3101 3103 3104 3104 3105 3106 3106 3107 3108 3109 3109 3110 3110 3111 3111 3111 3112 3112 3113 3113 3113 3114 3114 3113 3113 3112 3112 3111 3111 3110 3109 3109 3108 3107 3106 3104 3103 3102 3101 3100 3099 3098 3096 3094 3093 3092 3090 3089 3087 3086 3085 3084
3067 3067 3067 3069 3072 3074 3076 3076 3077 3078 3078 3078 3079 3079 3079 3079 3080 3081 3082 3083 3085 3086 3088 3089 3090 3091 3092 3093 3094 3094 3095 3096 3097 3098 3100 3100 3101 3102 3103 3103 3105 3105 3106 3106 3106 3106 3107 3107 3107 3108 3108 3109 3109 3109 3108 3108 3108 3108 3107 3107 3106 3105 3105 3104 3103 3102 3101 3100 3099 3098 3097 3096 3095 3094 3092 3091 3089 3087 3086 3085 3084 3083 3082 3080 3079
3066 3066 3066 3067 3069 3071 3073 3074 3075 3076 3076 3076 3077 3077 3077 3077 3078 3078 3079 3080 3081 3082 3084 3085 3086 3088 3088 3089 3090 3091 3093 3094 3095 3096 3097 3097 3098 3099 3100 3100 3101 3102 3102 3102 3102 3102 3102 3103 3103 3104 3104 3104 3104 3104 3104 3104 3103 3103 3102 3101 3101 3100 3099 3098 3097 3096 3095 3095 3094 3092 3091 3090 3089 3088 3087 3085 3084 3082 3081 3080 3079 3078 3077 3076 3075
3063 3064 3064 3065 3067 3069 3071 3072 3073 3074 3074 3074 3074 3074 3074 3075 3075 3076 3077 3078 3079 3080 3081 3082 3084 3085 3086 3087 3088 3089 3090 3091 3092 3093 3093 3094 3095 3095 3096 3096 3097 3097 3097 3097 3098 3098 3098 3098 3099 3099 3099 3099 3099 3099 3099 3099 3098 3098 3097 3097 3096 3095 3094 3094 3093 3092 3091 3090 3089 3088 3087 3085 3084 3083 3082 3081 3079 3078 3077 3076 3075 3073 3073 3072 3070
3061 3061 3062 3062 3064 3066 3069 3070 3071 3072 3072 3072 3072 3072 3072 3072 3073 3073 3074 3075 3076 3077 3079 3080 3081 3082 3083 3084 3085 3086 3087 3088 3089 3089 3090 3090 3091 3092 3092 3092 3092 3093 3093 3093 3093 3094 3094 3094 3094 3094 3094 3094 3094 3094 3094 3094 3093 3093 3092 3092 3091 3091 3090 3089 3088 3087 3086 3085 3084 3083 3082 3081 3079 3078 3077 3076 3075 3073 3072 3071 3070 3069 3068 3066 3065
3059 3059 3059 3060 3062 3064 3067 3068 3069 3070 3070 3069 3069 3069 3069 3070 3070 3071 3072 3072 3073 3074 3076 3077 3078 3079 3081 3082 3082 3083 3084 3085 3085 3086 3086 3087 3087 3088 3088 3088 3088 3089 3089 3089 3089 3089 3089 3089 3089 3089 3089 3089 3089 3089 3089 3088 3088 3087 3087 3087 3086 3085 3085 3084 3083 3082 3081 3080 3078 3077 3076 3075 3074 3073 3072 3071 3070 3069 3068 3066 3065 3064 3063 3062 3061